Weather in Kakashura

Russia / Republic of Dagestan     42°39′19″N   47°23′15″E
temp.,
°C
wind,
m/s
gust,
m/s
humid.,
%
clouds,
%
prec.,
mm/h
press.,
hPa
HPBL,
m
26 february, fri
fri2600:00−2nw1150100 0.0 103028
03:00−1nw1144100 0.0 102824
06:000wsw124499 0.0 102823
09:00+3s0136100 0.0 102663
12:00+6e1130100 0.0 1026384
15:00+7ne1347100 0.0 1024582
18:00+2s125682 0.0 102522
21:00+2wsw115589 0.0 102522
27 february, sat
sat2700:00+2sw125897 0.0 102322
03:00+2sw125973 0.0 102322
06:00+1sw11630 0.0 102222
09:00+7w01470 0.0 1021125
12:00+8ene21400 0.0 1019475
15:00+9e33500 0.0 1017561
18:00+5se22740 0.0 101730
21:00+4ssw11750 0.0 101722
28 february, sun
sun2800:00+3ssw11740 0.0 101522
03:00+3sw22720 0.0 101422
06:00+3sw22630 0.0 101422
09:00+8s11410 0.0 101399
12:00+10ne33460 0.0 1012521
15:00+8n45600 0.0 1013905
18:00+5nne229095 0.4 1015255
21:00+5n229498 1.6 1018226
1 march, mon
mon100:00+4n2397100 1.9 1019224
03:00+3nnw3496100 3.8 1020283
06:00+2nnw3695100 1.6 1021442
09:00+2nnw2391100 1.9 1023287
12:00+4n3476100 0.1 1024694
15:00+3nne2379100 0.4 1024511
18:00+2ene1287100 0.4 1026269
21:00+2ese1193100 0.6 1027118
2 march, tue
tue200:00+1ene1193100 0.1 102855
03:00+1nne1197100 0.3 1028117
06:000nne1196100 1.0 1028109
09:00+1nne1196100 2.1 1029155
12:00+1ene2296100 0.8 1029231
15:00+1ene2296100 1.3 1027257
18:00+1e2296100 0.3 1027184
21:00+1se2395100 0.4 1027233